Погода в Сизиме

Россия / Республика Тыва     51°19′03″N   95°56′37″E
темп.,
°C
ветер,
м/с
пор.,
м/с
влажн.,
%
обл.,
%
осадки,
мм/ч
давл.,
гПа
погр.,
м
12 апреля, пн
пн1201:00−5вюв1178100 0.0 104029
04:00−5вюв11765 0.0 103926
07:00−4вюв12665 0.0 103998
10:00+4сз133644 0.0 1035854
13:00+6зсз353199 0.0 10311383
16:00+6сз4734100 0.0 10281384
19:00+2з0053100 0.0 102810
22:00+1ююв1160100 0.1 102913
13 апреля, вт
вт1301:00+1ю2257100 0.1 102822
04:00+1юв2266100 0.0 102736
07:00+1вюв1280100 0.0 102689
10:00+6св1157100 0.0 1023424
13:00+10зсз364175 0.0 10181231
16:00+11зсз473999 0.0 10141863
19:00+5зсз2774100 0.4 1017809
22:00+1зсз51084100 0.9 1020905
14 апреля, ср
ср1401:000ююз1185100 2.7 1021130
04:00−3зсз2579100 0.4 1024133
07:00−3з2570100 0.4 1028413
10:000зсз5746100 0.1 10271671
13:00+2зсз71038100 0.5 10253083
16:00+2зсз7113893 0.4 10242719
19:000зсз494885 0.5 1026601
22:00−2юз2865100 0.0 1027227
15 апреля, чт
чт1501:00−1зюз3860100 0.0 1024762
04:00−1зюз2873100 0.1 1023883
07:000з51265100 0.8 10211551
10:00+3зсз71050100 0.1 10211862
13:00+5зсз71048100 0.1 10202120
16:00+6зсз6841100 0.1 10192222
19:00+3зсз3854100 0.1 1021275
22:00−2ю22805 0.0 102514
16 апреля, пт
пт1601:00−3юв118598 0.0 102518
04:00−4вюв218886 0.0 102623
07:00−2в1275100 0.0 1025117
10:00+7всв114680 0.0 1021629
13:00+11сз253553 0.0 10171579
16:00+11сз46338 0.0 10161967
19:00+7ссз11515 0.0 101810
22:00+2юв22675 0.0 102112